Regional Weather Roundup
Issued by NWS Kansas City/Pleasant Hill, MO

Home | Current Version | Previous Version | Graphics & Text | Print | Product List | Glossary Off
Versions: 1 2 3 4 5 6 7 8 9 10 11 12 13 14 15 16 17 18 19 20 21 22 23 24 25 26 27 28 29 30 31 32 33 34 35 36 37 38 39 40 41 42 43 44 45 46 47 48 49 50

000
ASUS43 KEAX 302010
RWREAX

WEATHER ROUNDUP FOR EASTERN KANSAS AND NORTHWEST MISSOURI
NATIONAL WEATHER SERVICE KANSAS CITY/PLEASANT HILL MO
300 PM CDT THU JUL 30 2015

KSZ040-057-103>105-MOZ028-029-037-043-302100-
...KANSAS CITY METROPOLITAN AREA...

CITY           SKY/WX    TMP DP  RH WIND       PRES   REMARKS
K.C. INTL      PTSUNNY   84  65  52 SW7       30.20F
K.C. DOWNTOWN  PTSUNNY   88  54  31 S8        30.18F
LEES SUMMIT    CLOUDY    85  58  39 SW6       30.21S
OLATHE - IXD   CLOUDY    83  59  44 SE7       30.21F
OLATHE - OJC   CLOUDY    82  59  45 SW5       30.20F
LAWRENCE       PTSUNNY   86  59  39 S6        30.19F

$$

MOZ001>008-011>017-020>025-030>033-038>040-044>046-053-054-302100-
...NORTHERN AND CENTRAL MISSOURI...

CITY           SKY/WX    TMP DP  RH WIND       PRES   REMARKS
ST. JOSEPH     MOSUNNY   85  62  46 SW8       30.18F
MOSBY          PTCLDY    86  57  37 S3        30.19S
WARRENSBURG    CLOUDY    84  61  45 S5        30.18F
WHITEMAN AFB   PTSUNNY   88  59  37 SW8       30.18F
CLINTON        CLOUDY    84  63  48 CALM      30.20S
SEDALIA        CLOUDY    87  56  34 VRB3      30.20F
WARSAW         NOT AVBL
CHILLICOTHE      N/A     87  63  44 W7        30.19F
KIRKSVILLE     SUNNY     86  61  42 W10       30.19S

$$

MOZ041-047>049-056>058-063>065-088>090-097-302100-
...EASTERN AND SOUTHERN MISSOURI...

CITY           SKY/WX    TMP DP  RH WIND       PRES   REMARKS
ST. LOUIS INTL PTSUNNY   92  58  31 NW10      30.16F HX  91
SPIRIT OF STL  MOSUNNY   88  58  36 W7        30.15S
COLUMBIA       PTSUNNY   86  63  45 SW6       30.19F
JEFFERSON CITY PTSUNNY   87  56  34 NE3       30.17F
ROLLA          PTSUNNY   86  57  37 N5        30.19S
OSAGE BEACH    CLOUDY    84  55  37 E3        30.19F
SPRINGFIELD    MOSUNNY   89  53  29 E8        30.19F
BRANSON        MOSUNNY   86  59  39 E6        30.20F
JOPLIN         CLOUDY    87  62  43 NE7       30.17F
WEST PLAINS    MOSUNNY   85  57  38 CALM      30.20F

$$

IAZ060-094-KSZ022-034>040-054-083-096-NEZ052-066-093-302100-
...KANSAS...SOUTHEAST NEBRASKA AND IOWA...

CITY           SKY/WX    TMP DP  RH WIND       PRES   REMARKS
TOPEKA         FAIR      85  57  38 S7        30.20F
MANHATTAN      PTSUNNY   85  65  51 SE5       30.19F
EMPORIA        PTSUNNY   76  66  71 SE5       30.21F
CHANUTE        CLOUDY    82  71  69 NW12      30.19F
WICHITA        PTSUNNY   82  69  64 NE7       30.19F
OMAHA          MOSUNNY   89  59  36 SW7       30.17F
LINCOLN        SUNNY     90  55  30 S13       30.19F
FALLS CITY     SUNNY     87  61  41 S9        30.18F
LAMONI         SUNNY     85  61  44 W8        30.19F
DES MOINES     MOSUNNY   89  53  29 NW17      30.14F

$$




USA.gov is the U.S. government's official web portal to all federal, state and local government web resources and services.